Find SERVIS-2

NORAD ID: 36588 Int'l Des: 2010-023 Owner: USEF Country: J operational
LEOCIRCULARRETROGRADESSO

当前视图

正在加载3D地球...

About SERVIS-2

SERVIS-2 (NORAD 36588) is a satellite launched Jun 2, 2010 by USEF of J. It operates in LEO, CIRCULAR, RETROGRADE, SSO orbit with a mass of 740.00 kg.

关于 SERVIS-2

正在加载描述...

即将过境

Passes for default location (London). Set your location on the main map for personalized predictions.

高度历史

Loading altitude history...

两行轨道根数

1 36588U 10023A 26159.76834409 .00000001 00000-0 11894-3 0 9997
2 36588 100.4282 347.6004 0016706 295.1050 83.0974 13.16052926769665
Epoch: Jun 8, 2026 • Age: 9 hours

当前状态

高度 1216.7 km
速度 7.25 km/s
星下点 -74.64°S, 175.71°W
发射日期 Jun 2, 2010
运行时间 16 years
类型 other

技术详情

分类 Payload
质量 740.00 kg
干质量 700.00 kg
总质量 740.00 kg
长度 2.30 m
直径 1.50 m
跨度 10.20 m
形状 Box + 2 Pan
制造商 MELCO
平台类型 SERVIS
阶段状态 In Orbit
所有者/国家 USEF/J

Most Searched